AirNav   Air Wisconsin pilot careers
 
 1435 users online  

40XS Hank Sasser Airport at Breakaway
Cedar Park, Texas, USA

GOING TO CEDAR PARK?


FAA INFORMATION EFFECTIVE 28 FEBRUARY 2019

Location

FAA Identifier: 40XS
Lat/Long: 30-31-03.4850N / 097-46-50.9450W
30-31.058083N / 097-46.849083W
30.5176347 / -97.7808181
(estimated)
Elevation: 897 ft. / 273.4 m (surveyed)
Variation: 07E (1985)
From city: 3 miles NE of CEDAR PARK, TX
Time zone: UTC -6 (UTC -5 during Daylight Saving Time)
Zip code: 78613

Airport Operations

Airport use: Private use. Permission required prior to landing
Control tower: no
ARTCC: HOUSTON CENTER
FSS: SAN ANGELO FLIGHT SERVICE STATION
Attendance: UNATNDD
Wind indicator: yes
Segmented circle: no
Lights: ACTVT MIRL RY 15/33 - 122.9.

Airport Communications

WX ASOS at RYW (10 nm W): 119.375 (512-267-1365)
WX AWOS-3PT at GTU (11 nm NE): PHONE 512-869-3430
WX AWOS-3 at EDC (13 nm SE): 118.825 (512-616-2967)
  • MULTICOM FREQ 122.9.

Nearby radio navigation aids

VOR radial/distance  VOR name  Freq  Var
CWKr297/15.4CENTEX VORTAC112.8006E
GRKr170/31.0GRAY VOR/DME111.8007E

Airport Services

Runway Information

Runway 15/33

Dimensions: 3000 x 30 ft. / 914 x 9 m
Surface: asphalt
Runway edge lights: non-standard
RUNWAY 15  RUNWAY 33
Latitude: 30-31.290833N30-30.825333N
Longitude: 097-46.946000W097-46.752167W
Elevation: 897.0 ft.897.0 ft.
Traffic pattern: leftright
Obstructions: 30 ft. trees, marked, 300 ft. from runway15 ft. trees, marked, 300 ft. from runway

Airport Ownership and Management from official FAA records

Ownership: Privately-owned
Owner: D & D AIRPORT HOLDINGS LLC
2814 KENAI DRIVE
CEDAR PARK, TX 78613
Phone 512-413-1214
Manager: DON RICHIE
2814 KENAI DRIVE
CEDAR PARK, TX 78613
Phone 512-413-1214
OR 512-260-9419.

Airport Operational Statistics

Aircraft based on the field: 23
Single engine airplanes: 22
Multi engine airplanes: 1
    

Additional Remarks

FOR CD CTC AUSTIN APCH AT 512-269-7865.

Instrument Procedures

There are no published instrument procedures at 40XS.

Some nearby airports with instrument procedures:

KRYW - Lago Vista TX - Rusty Allen Airport (10 nm W)
KGTU - Georgetown Municipal Airport (11 nm NE)
KEDC - Austin Executive Airport (13 nm SE)
3R9 - Lakeway Airpark (15 nm SW)
T74 - Taylor Municipal Airport (18 nm E)
 
Loc | Ops | Rwys | IFR | FBO | Links
Com | Nav | Svcs | Stats | Notes
Area around 40XS (Hank Sasser Airport at Breakaway)
 
Road maps at: MapQuest Bing Google
 
Aerial photo
WARNING: Photo may not be current or correct
Aerial photo of 40XS (Hank Sasser Airport at Breakaway)
Do you have a better or more recent aerial photo of Hank Sasser Airport at Breakaway that you would like to share? If so, please send us your photo.

 
Sectional chart

 
Airport distance calculator
Flying to Hank Sasser Airport at Breakaway? Find the distance to fly.

From to 40XS

Sunrise and sunset
Times for 21-Mar-2019
 Local
(UTC-5)
 Zulu
(UTC)
Morning civil twilight07:1112:11
Sunrise07:3512:35
Sunset19:4200:42
Evening civil twilight20:0601:06

Current date and time
Zulu (UTC)  21-Mar-2019 15:16:12
Local (UTC-5)  21-Mar-2019 10:16:12
 
METAR
KRYW 
10nm W 
211455Z AUTO 27006KT 10SM CLR 14/08 A3029 RMK AO2 T01380075
KGTU 
11nm NE 
211456Z 23004KT 10SM CLR 16/07 A3030 RMK AO2 SLP259 T01560067 53013
KEDC 
13nm SE 
211455Z AUTO 00000KT 10SM CLR 17/04 A3029 RMK AO2
KATT 
14nm S 
211451Z AUTO 28004KT 10SM CLR 16/07 A3029 RMK AO2 SLP254 T01610072 53012
KAUS 
15nm S 
211453Z 24003KT 10SM FEW065 18/07 A3028 RMK AO2 SLP251 T01780072 53010
TAF
KAUS 
15nm S 
211120Z 2112/2218 VRB03KT P6SM FEW070 FM212100 14004KT P6SM SCT250
NOTAMs
Click for the latest NOTAMs
NOTAMs are issued by the DoD/FAA and will open in a separate window not controlled by AirNav.

 

 
 

Would you like to see your business listed on this page?

 If your business provides an interesting product or service to pilots, flight crews, aircraft, or users of the Hank Sasser Airport at Breakaway, you should consider listing it here.  To start the listing process, click on the button below
 
Add a business
 

Other Pages about Hank Sasser Airport at Breakaway

Update a link
 
Copyright © AirNav, LLC. All rights reserved. Privacy Policy  Contact